Lapse_Rate
5.5 5.6 5.6 5.6 5.4 5.5 5.5 5.7 5.6 5.7 5.9 5.6 5.6 5.6 5.4 5.5 5.0 5.0 5.0 5.1 5.2 5.4 5.5 5.4 5.5 5.7 5.5 5.4 5.5 5.5 5.5 5.2 5.0 4.9 4.9 5.0 5.1 4.9
5.5 5.5 5.4 5.5 5.5 5.6 5.3 5.5 5.5 5.8 5.6 5.7 5.8 5.6 5.5 5.2 5.4 5.3 5.0 4.5 5.0 5.1 5.4 5.5 5.5 5.5 5.4 5.3 5.2 5.2 5.1 4.9 4.9 4.6 4.3 4.3 4.4 4.6
5.6 5.5 5.4 5.5 5.6 5.7 5.8 5.5 5.4 5.7 5.8 5.5 5.4 5.6 5.7 5.4 5.5 5.4 5.4 5.4 5.1 5.0 5.3 5.2 5.3 5.5 5.5 5.1 5.0 4.8 4.6 4.6 4.7 4.6 4.3 4.2 4.2 4.2
6.1 5.8 5.8 5.7 5.7 5.7 5.8 5.6 5.8 5.7 5.6 5.5 5.5 5.7 5.7 5.6 5.1 5.4 5.4 5.6 5.7 5.2 5.3 5.5 5.6 5.3 4.9 4.6 4.5 4.5 4.3 4.3 4.4 4.3 4.3 4.1 4.0 4.1
6.3 6.3 6.3 6.1 5.9 5.9 5.9 5.8 5.9 6.1 5.9 5.5 5.8 5.8 5.6 5.8 5.5 5.3 5.6 5.6 5.4 5.2 4.8 5.1 5.0 4.8 4.8 4.3 4.2 4.2 4.1 4.1 4.0 4.0 4.0 3.8 3.8 3.9
6.4 6.3 6.2 6.2 6.2 6.1 6.0 5.9 6.1 6.2 6.1 5.8 5.8 5.7 5.7 5.7 5.7 5.7 6.0 5.9 5.3 4.9 4.8 4.5 4.5 4.7 4.1 4.1 4.2 4.3 4.1 4.0 4.0 3.8 3.9 4.0 3.8 4.1
6.4 6.4 6.2 6.3 6.3 6.1 6.1 6.2 6.1 6.1 6.1 5.9 5.8 6.0 6.0 6.2 6.0 5.7 5.8 5.5 5.2 5.2 5.1 4.5 4.6 4.6 4.5 4.3 4.3 4.3 4.2 4.0 3.8 3.6 3.6 3.9 4.0 4.1
6.5 6.5 6.4 6.1 6.0 6.0 6.2 6.1 6.0 6.3 6.0 6.1 6.2 6.0 5.8 5.8 5.7 5.6 5.5 5.3 4.9 4.9 5.0 5.0 4.6 4.6 4.6 4.8 4.6 4.2 4.2 4.1 4.1 4.0 4.1 4.1 4.2 4.2
6.4 6.5 6.3 6.1 6.1 6.1 6.2 6.3 6.2 6.2 6.1 6.0 6.0 5.9 5.9 5.8 5.4 5.0 4.8 5.0 5.4 5.3 5.4 5.5 5.2 5.1 4.8 4.7 4.5 4.4 4.3 4.3 4.2 4.2 4.2 4.3 4.4 4.5
6.5 6.4 6.3 6.0 6.2 6.3 6.3 6.4 6.3 6.2 6.2 6.1 6.1 6.2 5.8 5.5 5.2 5.2 5.1 5.4 5.7 5.6 5.4 5.9 5.6 5.6 5.1 5.0 4.6 4.4 4.5 4.5 4.6 4.4 4.2 4.4 4.6 4.6
6.3 6.6 6.4 6.1 6.2 6.1 5.8 5.9 5.8 6.1 6.2 6.1 6.0 5.6 5.7 5.6 5.3 5.1 5.2 5.5 6.0 6.2 5.7 5.7 5.8 5.5 5.7 5.6 5.0 4.6 4.5 4.7 4.7 4.5 4.4 4.5 4.7 4.7
6.2 6.6 5.9 6.1 5.9 6.0 6.2 6.2 6.5 6.5 6.1 6.2 6.3 6.2 5.7 5.1 4.9 4.8 5.0 5.2 5.6 6.2 6.1 6.1 6.2 5.9 6.1 6.3 5.6 4.8 4.7 4.5 4.7 4.7 4.7 4.6 4.7 4.6
5.8 6.1 6.2 6.0 6.3 6.4 6.4 6.4 6.5 6.6 6.3 6.1 6.0 5.8 5.4 5.4 5.2 4.7 4.6 4.7 4.8 5.4 5.8 6.2 6.5 5.9 5.7 5.9 5.6 4.9 4.7 4.5 4.5 4.5 4.7 4.8 4.7 4.6
6.2 6.1 6.3 6.4 6.4 6.4 6.3 6.4 6.3 6.3 6.3 6.2 5.8 5.7 5.3 5.2 5.2 5.0 5.0 5.0 5.0 5.3 5.9 6.1 6.2 6.2 6.0 6.1 5.8 4.9 4.6 4.4 4.6 4.9 4.9 4.7 4.6 4.6
6.0 6.1 6.1 6.1 6.2 6.4 6.5 6.4 6.3 6.5 6.3 5.9 5.6 5.7 5.2 5.1 5.3 5.3 4.8 4.8 5.1 5.7 6.0 6.0 6.3 6.2 5.6 5.6 5.0 4.6 4.5 4.5 4.6 4.9 5.0 4.9 4.7 4.9
5.8 6.3 6.6 6.4 6.0 6.3 6.2 6.0 6.0 6.2 6.2 6.1 5.5 5.7 5.6 5.4 5.4 5.1 5.0 5.2 5.4 5.5 5.7 5.8 5.8 5.7 5.2 4.8 4.6 4.5 4.6 4.6 4.8 4.8 5.1 4.8 4.8 4.9
5.2 5.4 5.8 6.1 6.2 6.3 6.3 6.4 6.5 6.3 6.1 5.9 5.9 5.7 5.6 5.4 5.4 5.2 5.2 5.4 5.3 5.3 5.1 5.2 5.4 5.4 5.4 5.2 5.1 5.1 5.2 5.2 5.1 5.0 4.9 4.8 4.9 4.9
4.8 5.8 6.2 6.2 6.3 6.3 6.5 6.8 6.7 6.5 6.5 6.4 6.5 6.0 5.4 5.5 5.6 5.6 5.2 5.2 5.3 5.3 5.2 5.2 5.2 5.3 5.3 5.4 5.5 5.6 5.6 5.5 5.3 5.2 5.1 5.2 5.1 5.1
4.5 5.1 5.9 6.3 6.3 6.3 6.4 6.4 6.5 6.6 6.7 6.4 6.0 5.4 5.3 5.3 5.3 5.3 5.2 5.1 5.3 5.4 5.4 5.3 5.2 5.2 5.5 5.7 5.7 5.5 5.5 5.5 5.5 5.5 5.3 5.3 5.3 5.2
5.4 5.9 6.2 6.4 6.3 6.2 6.2 6.1 6.6 6.5 6.4 6.3 6.0 5.8 5.6 5.4 4.8 5.4 5.3 5.6 5.4 5.4 5.6 5.5 5.5 5.4 5.5 5.6 5.5 5.4 5.5 5.4 5.4 5.4 5.3 5.2 5.2 5.2
5.8 5.9 6.1 6.2 6.2 6.3 6.1 6.3 6.4 6.3 6.5 6.5 6.2 5.6 5.0 4.9 5.4 5.5 5.6 5.7 5.7 5.8 5.9 5.9 5.8 5.6 5.5 5.5 5.4 5.4 5.4 5.3 5.3 5.3 5.2 5.2 5.3 5.0
5.9 6.1 6.2 6.3 6.2 6.1 6.0 6.3 6.3 6.3 6.4 6.4 6.2 5.6 5.3 5.5 5.6 5.8 6.1 6.0 6.0 6.0 6.0 5.8 5.6 5.6 5.6 5.5 5.4 5.3 5.3 5.2 5.0 5.0 5.1 5.1 4.9 4.7
5.5 5.6 5.8 6.1 6.2 6.3 6.4 6.2 6.1 6.2 6.1 6.1 6.2 6.1 5.8 5.6 5.5 5.6 5.6 6.1 6.1 6.0 5.8 5.5 5.5 5.5 5.3 5.2 5.2 5.2 5.1 4.9 4.9 4.7 4.7 4.7 4.7 4.7
Wind_Speed
16 16 13 12 9 9 6 8 5 5 7 5 4 8 12 13 15 16 16 18 28 27 25 24 22 21 21 21 23 23 21 22 22 22 21 20 18 17
12 17 15 12 11 9 8 7 7 5 5 4 6 4 11 13 18 20 19 21 26 28 27 28 28 26 25 22 19 25 27 26 25 25 24 23 21 20
16 16 17 15 11 10 9 9 9 7 6 3 4 8 7 7 9 17 18 16 16 25 25 28 30 30 29 28 26 24 24 27 28 29 27 25 24 22
18 16 18 12 15 14 11 13 12 10 6 10 4 3 7 6 4 8 10 14 17 19 27 26 26 28 28 28 29 27 29 28 28 31 30 28 28 26
18 18 17 18 16 12 12 12 10 7 10 4 3 2 2 2 3 4 6 10 12 15 18 21 23 25 26 28 28 29 32 28 29 32 33 33 31 28
18 17 18 17 17 15 13 13 11 9 9 7 4 3 2 2 2 3 4 5 6 8 13 17 17 21 24 25 26 28 30 32 30 31 33 34 32 30
17 17 17 18 19 17 11 12 13 10 8 8 5 3 4 4 6 4 5 3 4 5 4 7 12 13 18 23 25 29 31 31 30 31 31 33 32 32
16 17 14 17 17 19 16 16 15 12 10 8 6 7 6 4 4 5 4 3 3 5 4 6 7 8 13 16 20 24 25 28 29 29 31 31 32 31
18 15 13 12 15 14 15 17 15 15 12 11 10 7 7 9 6 5 6 5 5 3 4 3 3 6 12 13 20 22 24 26 26 28 29 30 30 30
18 17 17 15 14 14 13 12 10 11 11 7 10 10 11 9 9 7 7 6 1 2 4 3 3 4 5 11 15 17 21 22 23 24 26 27 28 28
13 15 15 14 16 16 13 12 9 8 10 12 11 12 13 14 11 5 4 4 3 3 6 3 3 3 2 4 8 14 17 20 21 22 23 25 26 25
11 11 18 15 16 12 10 11 10 8 7 5 3 3 7 8 14 8 5 4 3 0 4 5 3 2 3 1 3 4 6 12 16 18 20 23 22 15
4 8 9 15 13 11 8 6 5 6 7 5 4 4 5 6 5 5 6 5 3 4 5 3 2 2 1 2 2 1 2 3 6 8 14 18 20 17
6 6 8 15 12 10 7 9 10 8 5 5 4 4 4 4 3 3 2 3 2 3 9 5 3 3 3 2 2 1 1 3 4 2 4 13 15 17
4 6 13 12 11 8 8 7 7 4 4 4 4 4 3 3 4 4 4 7 6 5 2 4 2 3 2 2 1 1 2 1 2 2 1 1 2 3
4 4 8 8 7 5 4 4 4 4 4 4 3 2 3 3 2 2 2 2 2 1 6 5 5 3 2 2 2 1 2 1 1 1 1 1 2 3
2 2 3 3 4 3 2 3 3 2 3 3 3 3 2 3 2 2 2 2 2 3 2 2 5 7 4 2 2 2 2 1 1 0 0 0 1 2
2 1 2 2 2 2 2 3 2 4 2 2 2 3 3 4 3 2 2 2 3 3 3 3 4 2 1 4 5 2 2 1 1 2 2 1 2 3
1 1 2 2 2 2 2 3 2 2 2 2 2 3 3 2 5 3 3 2 2 3 2 3 4 3 4 4 2 8 2 1 1 1 0 2 2 4
1 1 2 3 2 1 2 2 1 3 2 3 2 3 3 2 2 3 4 3 3 2 3 2 3 3 3 2 3 2 4 2 1 1 1 2 5 12
1 1 2 3 3 2 2 2 3 2 3 3 2 2 2 2 3 3 4 7 6 4 5 4 2 7 4 3 3 2 1 4 1 1 1 2 3 3
3 3 3 3 3 2 1 2 2 3 3 3 3 2 2 2 3 4 5 5 5 5 5 5 4 3 2 2 2 2 0 1 3 5 9 8 2 3
5 4 4 3 3 2 1 1 1 2 2 3 3 3 3 3 3 3 3 5 6 7 8 6 3 3 2 2 3 1 1 2 3 4 3 5 11 16
Wind_Direction
201 201 199 199 192 191 176 172 154 171 209 198 190 200 200 208 227 227 223 224 222 223 229 232 236 244 239 231 226 229 233 227 218 220 225 228 231 236
197 196 197 194 193 192 182 185 186 170 198 178 193 171 187 203 209 217 228 220 224 225 228 233 237 243 249 250 243 234 232 229 223 219 228 230 229 232
197 193 196 193 191 188 187 192 190 186 196 203 172 187 174 196 208 216 218 220 226 225 228 233 238 242 246 248 249 247 244 239 228 222 227 232 233 234
197 190 196 191 191 187 189 196 199 194 188 202 173 162 203 203 209 202 215 225 229 234 228 231 236 240 242 245 245 245 246 243 232 225 225 226 229 232
195 192 194 191 191 186 190 192 194 189 200 176 152 107 140 142 187 208 204 221 233 244 240 237 239 242 241 241 241 241 243 242 237 227 223 224 225 225
198 194 193 189 190 183 182 182 183 181 191 190 164 142 159 159 188 187 216 210 228 219 236 240 240 241 245 245 244 244 243 242 240 231 226 223 222 221
192 187 189 183 185 180 182 185 180 182 182 188 178 155 163 169 197 174 220 213 234 220 227 235 233 237 240 243 246 246 244 242 241 239 231 226 223 220
183 182 178 168 171 169 175 172 176 180 180 179 171 191 183 183 171 188 187 191 244 178 208 251 207 239 245 242 242 244 245 242 241 239 234 228 223 220
174 172 169 178 170 176 174 169 172 173 188 183 184 190 193 204 190 189 201 197 221 182 183 244 187 242 247 245 243 245 244 245 242 238 235 229 223 219
169 169 171 167 168 169 176 173 178 188 198 190 193 189 201 191 187 199 201 215 212 185 194 242 180 236 254 250 246 245 249 250 249 241 235 229 222 216
140 166 160 154 155 155 167 172 171 181 179 172 175 175 180 179 186 147 183 172 210 208 197 219 207 255 249 261 260 249 249 251 250 248 240 233 220 216
103 115 102 110 116 140 157 163 166 171 165 156 161 190 195 201 191 198 183 199 170 160 208 187 178 174 294 306 313 303 280 271 266 262 252 239 220 206
82 87 92 104 118 124 126 133 141 132 162 163 179 190 188 197 200 200 192 193 177 210 185 155 151 154 191 304 313 315 323 300 286 284 267 242 213 202
41 60 85 99 99 106 122 150 159 148 159 165 175 186 191 192 189 175 160 139 105 211 170 167 172 168 165 174 250 325 346 308 298 289 289 252 243 215
19 74 86 96 117 126 147 154 156 158 162 154 180 189 161 179 132 112 83 96 83 52 99 161 129 138 140 175 183 240 333 1 312 307 338 359 111 98
9 52 68 70 72 103 123 152 178 179 173 177 182 136 129 143 134 136 140 146 118 99 46 74 136 133 160 176 181 209 201 278 355 12 8 10 41 79
71 62 64 71 82 111 131 150 140 153 164 159 144 154 142 137 149 140 130 130 135 167 150 61 61 82 66 128 189 198 173 195 5 67 68 314 282 250
33 114 106 86 103 133 146 123 104 118 124 132 115 127 160 170 152 145 131 145 156 166 154 156 156 132 115 69 34 159 149 161 121 81 72 317 274 256
304 180 111 90 73 68 88 80 92 104 102 96 114 133 133 152 169 167 157 144 151 154 154 158 172 162 177 199 96 34 160 142 150 119 339 236 269 276
320 52 86 103 104 86 86 90 135 115 118 130 119 142 155 152 155 172 175 166 144 132 142 152 179 184 194 179 145 86 40 132 135 152 255 280 272 282
309 99 111 104 105 100 123 139 107 150 133 126 139 150 165 175 180 180 185 179 156 157 162 149 119 106 95 110 105 122 80 50 98 194 206 298 303 307
57 69 61 80 91 94 108 111 130 152 135 129 128 153 165 182 196 175 172 171 162 150 124 111 105 102 77 87 118 131 98 342 307 273 249 239 261 283
31 41 41 46 54 67 87 139 135 133 125 135 149 160 158 168 165 153 159 139 131 127 132 127 108 74 84 100 117 100 26 336 340 328 301 272 259 264